Location: C�an Torras
(41.5052°N, 1.9280°E)
Time: 22:56:05
(UTC+00:00)

Cosmos 923 Rocket - Visible Passes

Search period start: 05 May 2021 00:00
Search period end: 15 May 2021 00:00
Orbit: 759 x 784 km, 74.0° (Epoch: 05 May)

Date Brightness Start Highest point End Pass type
(mag) Time Alt. Az. Time Alt. Az. Time Alt. Az.
05 May 6.4 21:18:44 10° NE 21:19:27 10° NE 21:20:10 10° ENE visible
05 May 4.6 22:57:19 10° NNW 23:01:26 53° N 23:01:26 53° N visible
06 May 6.5 00:41:29 10° WNW 00:41:46 11° WNW 00:41:46 11° WNW visible
06 May 4.8 22:21:33 10° N 22:26:07 42° NE 22:26:07 42° NE visible
07 May 6.0 00:04:18 10° NW 00:06:27 19° WNW 00:06:27 19° WNW visible
07 May 5.3 21:45:59 10° N 21:50:25 27° ENE 21:50:49 27° ENE visible
07 May 5.3 23:27:47 10° NW 23:31:09 32° WNW 23:31:09 32° WNW visible
08 May 5.9 21:10:43 10° NNE 21:14:10 17° NE 21:15:32 16° ENE visible
08 May 4.5 22:51:35 10° NNW 22:55:53 55° NW 22:55:53 55° NW visible
09 May 6.3 20:36:24 10° NE 20:37:48 11° NE 20:39:12 10° ENE visible
09 May 4.0 22:15:36 10° NNW 22:20:37 73° NE 22:20:37 73° NE visible
10 May 6.4 00:00:02 10° WNW 00:00:58 12° WNW 00:00:58 12° WNW visible
10 May 4.5 21:39:48 10° N 21:44:52 45° ENE 21:45:24 44° E visible
10 May 5.8 23:22:40 10° NW 23:25:44 21° W 23:25:44 21° W visible
11 May 5.2 21:04:12 10° N 21:08:44 28° ENE 21:10:12 25° E visible
11 May 5.0 22:46:07 10° NW 22:50:32 36° W 22:50:32 36° W visible
12 May 5.8 20:28:53 10° NNE 20:32:30 18° NE 20:35:01 14° E visible
12 May 4.1 22:09:53 10° NNW 22:15:05 62° WSW 22:15:22 61° WSW visible
13 May 6.2 19:54:19 10° NNE 19:56:10 12° NE 19:58:00 10° ENE visible
13 May 3.9 21:33:53 10° NNW 21:39:11 80° ENE 21:40:13 58° SE visible
13 May 6.4 23:18:39 10° WNW 23:20:32 12° W 23:20:33 12° W visible
14 May 4.4 20:58:03 10° N 21:03:10 48° ENE 21:05:06 33° ESE visible
14 May 5.8 22:41:04 10° NW 22:44:55 21° W 22:45:26 20° WSW visible
